Torna al catalogo

ONEWEB-0374

AttivoComunicazioniPO
NORAD 49300·PAYLOAD·🇬🇧 United Kingdom

Lanciato Oct 14, 2021 da Vostochny Cosmodrome

Loading…

Prossimi Passaggi (prossime 24 ore)

TLE

AggiornatoSource: CelesTrak SupGP

Epoca: Sep 14, 2026, 17:32 UTC

1 49300C 21090X   26257.73073333 -.00001589  00000+0 -42909-2 0  2576
2 49300  87.8914 271.8438 0002342 103.9899 357.4574 13.14506821    15

Traccia ONEWEB-0374 in tempo reale con AllMySat

Download on the App Store